Loading...
Open Courses Calendar

View dates, locations, levels, prices in one place

September 2022
Code Course title Date Location and language Price
000132 International Marketing Professional 26.09.2022 - 30.09.2022 Online - Russian 719,99 USD
000052 Advanced First Aid 26.09.2022 - 28.09.2022 Online - Russian 179,99 USD
000114 Drilling Fluids Technology 26.09.2022 - 30.09.2022 Online - Russian 579,99 USD
000078 Drafting Modern Commercial Contracts 26.09.2022 - 30.09.2022 Online - Russian 719,99 USD
000170 Efficient HR Administration Techniques 26.09.2022 - 30.09.2022 Online - Russian 519,99 USD
000126 Pressure Vessels and Heat Exchangers 26.09.2022 - 30.09.2022 Online - Russian 579,99 USD
000145 LEAN Six Sigma Green Belt Professional 26.09.2022 - 30.09.2022 Online - Russian 719,99 USD
000060 Leadership Skills in a Digital Era 27.09.2022 - 29.09.2022 Online - Russian 539,99 USD
000137 Efficient People Interviewing and Selection Skills 28.09.2022 - 30.09.2022 Online - Russian 319,99 USD
000231 Information Literacy 28.09.2022 - 28.09.2022 Online - Russian 99,99 USD
000248 Digital Marketing 28.09.2022 - 29.09.2022 Online - Russian 279,99 USD
000103 Gas Humidity Measurement 28.09.2022 - 30.09.2022 Online - Russian 419,99 USD
000096 Introduction to Refining Process 28.09.2022 - 30.09.2022 Online - Russian 479,99 USD
000053 Basic First Aid 30.09.2022 - 30.09.2022 Online - Russian 19,99 USD
October 2022
Code Course title Date Location and language Price
000054 Safety Leadership for Supervisors 01.10.2022 - 01.10.2022 Online - Russian 19,99 USD
000226 Process Safety 03.10.2022 - 07.10.2022 Online - Russian 119,99 USD
000057 Scaffolding and Calculation (Erection) 03.10.2022 - 07.10.2022 Online - Russian 419,99 USD
000227 Application Essentials 03.10.2022 - 03.10.2022 Online - Russian 199,99 USD
000113 Primary Cementing Operations 03.10.2022 - 07.10.2022 Online - Russian 579,99 USD
000101 Natural Gas 03.10.2022 - 07.10.2022 Online - Russian 579,99 USD
000080 Effective Negotiation Techniques and Strategies 03.10.2022 - 07.10.2022 Online - Russian 719,99 USD
000181 Flow Assurance 03.10.2022 - 07.10.2022 Online - Russian 819,99 USD
000162 Advanced Management Development Programme 03.10.2022 - 07.10.2022 Online - Russian 899,99 USD
000130 Fundamentals of Pumps and Compressors 03.10.2022 - 07.10.2022 Online - Russian 819,99 USD
000217 Project Management 03.10.2022 - 07.10.2022 Online - Russian 519,99 USD
000241 Advanced MS PowerPoint Presentation 04.10.2022 - 05.10.2022 Online - Russian 279,99 USD
000158 Certificate in Leadership and Management 04.10.2022 - 08.10.2022 Online - Russian 719,99 USD
000232 Smart Digital 05.10.2022 - 07.10.2022 Online - Russian 319,99 USD
000022 Risk based process safety management 10.10.2022 - 12.10.2022 Online - Russian 179,99 USD
000199 Stuck Pipe Prevention and Fishing Operations 10.10.2022 - 14.10.2022 Online - Russian 819,99 USD
000198 Workovers and Completions 10.10.2022 - 14.10.2022 Online - Russian 819,99 USD
000091 Applied Chemical Engineering 10.10.2022 - 21.10.2022 Online - Russian 999,99 USD
000288 Анализ отказов и способы ремонта механизмов 10.10.2022 - 14.10.2022 Online - Russian 819,99 USD
000164 Train the Trainer 10.10.2022 - 14.10.2022 Online - Russian 519,99 USD
000065 Power Protection Relay Systems 10.10.2022 - 14.10.2022 Online - Russian 819,99 USD
000063 P&IDs, Pipe Sizing, Piping Layouts and Isometrics 10.10.2022 - 14.10.2022 Online - Russian 419,99 USD
000178 Fundamentals of Offshore and Deepwater Systems 10.10.2022 - 14.10.2022 Online - Russian 579,99 USD
000208 Logistics and Supply Chain Management 11.10.2022 - 15.10.2022 Online - Russian 719,99 USD
000234 IT Security 12.10.2022 - 14.10.2022 Online - Russian 319,99 USD
000243 Advanced MS Excel Spreadsheets 13.10.2022 - 14.10.2022 Online - Russian 279,99 USD
000037 Confined Space Rescue 13.10.2022 - 14.10.2022 Online - Russian 119,99 USD
000251 Data Analytics 13.10.2022 - 14.10.2022 Online - Russian 199,99 USD
000112 Well Completion and Servicing 17.10.2022 - 21.10.2022 Online - Russian 819,99 USD
000005 Advanced Oil & Gas Field Processing 17.10.2022 - 28.10.2022 Online - Russian 999,99 USD
000013 Training for Trainers and Instructors 17.10.2022 - 21.10.2022 Online - Russian 119,99 USD
000206 Train the Technical Trainer 17.10.2022 - 21.10.2022 Online - Russian 519,99 USD
000066 Power and Distribution Transformers Operation and Maintenance 17.10.2022 - 19.10.2022 Online - Russian 279,99 USD
000084 Process safety engineering 17.10.2022 - 21.10.2022 Online - Russian 819,99 USD
000246 3D Design 18.10.2022 - 20.10.2022 Online - Russian 279,99 USD
000134 Certified Executive Assistant 24.10.2022 - 28.10.2022 Online - Russian 719,99 USD
000228 Computer and Online Essentials 24.10.2022 - 26.10.2022 Online - Russian 319,99 USD
000230 Online Essentials 24.10.2022 - 27.10.2022 Online - Russian 319,99 USD
000018 Control of Substances Hazardous to Health 24.10.2022 - 24.10.2022 Online - Russian 19,99 USD
000187 Reliability Engineering 24.10.2022 - 28.10.2022 Online - Russian 819,99 USD
000149 Strategic Leadership in International Environment 24.10.2022 - 28.10.2022 Online - Russian 899,99 USD
000020 Pressure vessels 26.10.2022 - 26.10.2022 Online - Russian 59,99 USD
000044 Safety on the Rig 28.10.2022 - 28.10.2022 Online - Russian 19,99 USD
000024 Safety for Executives and Directors 31.10.2022 - 31.10.2022 Online - Russian 19,99 USD
000203 Land Seismic Acquisition Techniques and Survey Design 31.10.2022 - 04.11.2022 Online - Russian 819,99 USD
000111 Workovers and Completions 31.10.2022 - 04.11.2022 Online - Russian 819,99 USD
000197 Advanced Cementing Operations 31.10.2022 - 04.11.2022 Online - Russian 819,99 USD
000105 Process Safety 31.10.2022 - 04.11.2022 Online - Russian 819,99 USD
000193 Equipment in Refining and Chemical Processes 31.10.2022 - 04.11.2022 Online - Russian 819,99 USD
000220 Certified Compensation and Rewards Management Professional 31.10.2022 - 04.11.2022 Online - Russian 719,99 USD
000212 Distributed Control Systems Overview 31.10.2022 - 04.11.2022 Online - Russian 819,99 USD
November 2022
Code Course title Date Location and language Price
000051 Incident Investigation Management 01.11.2022 - 01.11.2022 Online - Russian 19,99 USD
000153 Leading Innovation in Modern Companies 01.11.2022 - 03.11.2022 Online - Russian 439,99 USD
000136 Time Management, Planning and Stress Control 02.11.2022 - 04.11.2022 Online - Russian 319,99 USD
000046 Permit to Work System and Risk Assessment 02.11.2022 - 02.11.2022 Online - Russian 19,99 USD
000050 Basic Firefighting 03.11.2022 - 03.11.2022 Online - Russian 19,99 USD
000233 Online Search 03.11.2022 - 03.11.2022 Online - Russian 99,99 USD
000238 MS Word Processing 03.11.2022 - 04.11.2022 Online - Russian 199,99 USD
000097 Base Oil Production 03.11.2022 - 05.11.2022 Online - Russian 439,99 USD
000225 Emergency Response Team Leader 07.11.2022 - 09.11.2022 Online - Russian 179,99 USD
000218 Managing tender and bid evaluation process 07.11.2022 - 09.11.2022 Online - Russian 439,99 USD
000087 Fluid Catalytic Cracking Operation 07.11.2022 - 11.11.2022 Online - Russian 819,99 USD
000291 Вращающиеся механизмы: анализ поиска и устранения неисправностей 07.11.2022 - 11.11.2022 Online - Russian 919,99 USD
000177 Heavy Oil Production Operations 07.11.2022 - 11.11.2022 Online - Russian 579,99 USD
000035 Crane and Lifting Operations Safety for Supervisors 10.11.2022 - 11.11.2022 Online - Russian 39,99 USD
000117 Applied Reservoir Engineering 14.11.2022 - 18.11.2022 Online - Russian 579,99 USD
000012 Delivering WOW Presentations Using Advanced Facilitation Skills 14.11.2022 - 18.11.2022 Online - Russian 279,99 USD
000192 Oil Desalting System 14.11.2022 - 18.11.2022 Online - Russian 579,99 USD
000125 Rotating Equipment in Oil and Gas Industry 14.11.2022 - 18.11.2022 Online - Russian 819,99 USD
000247 Image Editing 17.11.2022 - 18.11.2022 Online - Russian 199,99 USD
000119 Basic Petroleum Geology 21.11.2022 - 25.11.2022 Online - Russian 579,99 USD
000236 Data Protection 21.11.2022 - 21.11.2022 Online - Russian 99,99 USD
000245 2D Design 21.11.2022 - 22.11.2022 Online - Russian 279,99 USD
000106 Oil Production and Processing Facilities 21.11.2022 - 25.11.2022 Online - Russian 819,99 USD
000015 Award in Health and Safety at Work 21.11.2022 - 23.11.2022 Online - Russian 59,99 USD
000190 Maintenance and Repairs of Oil and Gas Equipment 21.11.2022 - 25.11.2022 Online - Russian 579,99 USD
000160 Business Strategy for Managers and Team Leaders 21.11.2022 - 25.11.2022 Online - Russian 719,99 USD
000126 Pressure Vessels and Heat Exchangers 21.11.2022 - 25.11.2022 Online - Russian 579,99 USD
000261 Introduction to Artificial Intelligence 23.11.2022 - 25.11.2022 Online - Russian 439,99 USD
000239 MS Excel Spreadsheet 24.11.2022 - 25.11.2022 Online - Russian 199,99 USD
000016 Fire watch 24.11.2022 - 24.11.2022 Online - Russian 19,99 USD
000041 Electrical Safety 25.11.2022 - 25.11.2022 Online - Russian 19,99 USD
000143 Advanced Presentation Skills and Techniques 28.11.2022 - 30.11.2022 Online - Russian 539,99 USD
000058 Advanced B2B Consultative Selling 28.11.2022 - 02.12.2022 Online - Russian 279,99 USD
000104 Dew Point Measurement 28.11.2022 - 30.11.2022 Online - Russian 419,99 USD
000286 Программа для инженера-специалиста по техническому обслуживанию 28.11.2022 - 02.12.2022 Online - Russian 819,99 USD
000122 Efficient People Interviewing and Selection Skills 28.11.2022 - 30.11.2022 Online - Russian 319,99 USD
000152 Managing Сhange and Transformation 28.11.2022 - 30.11.2022 Online - Russian 439,99 USD
000083 Steam Turbines 28.11.2022 - 02.12.2022 Online - Russian 699,99 USD
000027 Waste Water Treatment 29.11.2022 - 30.11.2022 Online - Russian 39,99 USD
December 2022
Code Course title Date Location and language Price
000055 International Minimum Industry Safety Training (based on OPITO Standard) 01.12.2022 - 02.12.2022 Online - Russian 39,99 USD
000093 Safe Working in the Refining Units 01.12.2022 - 02.12.2022 Online - Russian 319,99 USD
000207 Effective contract management and administration 01.12.2022 - 02.12.2022 Online - Russian 279,99 USD
000118 Basic Reservoir Engineering 05.12.2022 - 09.12.2022 Online - Russian 579,99 USD
000111 Workovers and Completions 05.12.2022 - 09.12.2022 Online - Russian 819,99 USD
000043 Working at Heights 05.12.2022 - 05.12.2022 Online - Russian 19,99 USD
000107 Produced Water Management 05.12.2022 - 09.12.2022 Online - Russian 819,99 USD
000208 Logistics and Supply Chain Management 05.12.2022 - 09.12.2022 Online - Russian 719,99 USD
000129 HVAC system Operation and Maintenance 05.12.2022 - 07.12.2022 Online - Russian 479,99 USD
000144 Managing Projects using MS Project and Primavera 05.12.2022 - 09.12.2022 Online - Russian 719,99 USD
000201 Basic Drilling Technology 12.12.2022 - 16.12.2022 Online - Russian 579,99 USD
000031 Forklift and Mechanical Handling Equipment 12.12.2022 - 15.12.2022 Online - Russian 239,99 USD
000285 Основное техническое обслуживание 12.12.2022 - 16.12.2022 Online - Russian 579,99 USD
000165 Modern Competency Management and Assurance Systems 12.12.2022 - 16.12.2022 Online - Russian 719,99 USD
000059 Digital Leadership 12.12.2022 - 14.12.2022 Online - Russian 439,99 USD
000237 Remote Work 13.12.2022 - 13.12.2022 Online - Russian 59,99 USD
000074 Select and manage building and construction contractors 19.12.2022 - 23.12.2022 Online - Russian 819,99 USD
000071 Introduction to Coiled Tubing Operations 19.12.2022 - 23.12.2022 Online - Russian 579,99 USD
000269 Проектирование промышленных анализаторных комплексов 19.12.2022 - 23.12.2022 Online - Russian 819,99 USD
000290 Эксплуатация, техническое обслуживание и осмотр вращающихся механизмов 19.12.2022 - 23.12.2022 Online - Russian 819,99 USD
000011 Labour Dispute Prevention and Resolution 19.12.2022 - 21.12.2022 Online - Russian 439,99 USD
000082 Boilers Safe Operation & Optimization 19.12.2022 - 23.12.2022 Online - Russian 919,99 USD
000148 Strategic Thinking for Senior Leadership 20.12.2022 - 24.12.2022 Online - Russian 899,99 USD
000026 Oil Spill Response Overview 26.12.2022 - 27.12.2022 Online - Russian 39,99 USD